Location: George Washington National Forest Helicopter Landing Site
(38.6463°N, 79.0851°W)
Time: 06:18:21
(UTC-04:00)

Tiros 1 despin weight - Pass Details

Date: 23 August 2019
Orbit: 594 x 642 km, 48.2° (Epoch: 19 September)

Event Time Altitude Azimuth Distance (km) Brightness Sun altitude
Rises 04:47:20 0° 303° (WNW) 2,869 - -20.3°
Exits shadow 04:49:16 - 309° (NW) 2,161 ? -19.9°
Reaches altitude 10° 04:49:48 10° 312° (NW) 1,972 ? -19.9°
Maximum altitude 04:53:57 34° 18° (NNE) 1,016 ? -19.2°
Drops below altitude 10° 04:58:09 10° 85° (E) 1,996 ? -18.5°
Sets 05:00:39 0° 94° (E) 2,910 ? -18.1°
